This is the latest recevied weather packets stored in our database for station/object CE2LOH-10. If no packets are shown the sender has not sent any weather packets the latest 10 day(s).
| Time | Temp. | Humidity | Pressure | Rain* | Wind** | Luminosity | Snow |
|---|---|---|---|---|---|---|---|
| 1777815506 | 14.44° C | 47% | 995.9 hPa | - | - | - | - |
| 1777814606 | 14.44° C | 47% | 995.8 hPa | - | - | - | - |
| 1777813706 | 13.33° C | 47% | 995.4 hPa | - | - | - | - |
| 1777812806 | 13.33° C | 46% | 995.4 hPa | - | - | - | - |
| 1777811906 | 12.78° C | 47% | 995.1 hPa | - | - | - | - |
| 1777811005 | 12.78° C | 47% | 995 hPa | - | - | - | - |
| 1777810105 | 12.78° C | 46% | 995.4 hPa | - | - | - | - |
| 1777809205 | 12.78° C | 46% | 995.2 hPa | - | - | - | - |
| 1777808305 | 12.78° C | 46% | 995 hPa | - | - | - | - |
| 1777807405 | 12.78° C | 46% | 994.9 hPa | - | - | - | - |
| 1777806505 | 13.33° C | 46% | 994.7 hPa | - | - | - | - |
| 1777805605 | 13.33° C | 46% | 994.6 hPa | - | - | - | - |
| 1777804705 | 13.33° C | 46% | 994.4 hPa | - | - | - | - |
| 1777803804 | 13.33° C | 45% | 994.4 hPa | - | - | - | - |
| 1777802904 | 13.89° C | 45% | 994.2 hPa | - | - | - | - |
| 1777802004 | 13.89° C | 45% | 994.4 hPa | - | - | - | - |
| 1777801104 | 13.89° C | 45% | 994.4 hPa | - | - | - | - |
| 1777800204 | 13.89° C | 45% | 994.6 hPa | - | - | - | - |
| 1777799304 | 14.44° C | 45% | 994.4 hPa | - | - | - | - |
| 1777798404 | 14.44° C | 45% | 994.4 hPa | - | - | - | - |
| 1777797504 | 14.44° C | 45% | 994 hPa | - | - | - | - |
| 1777796603 | 14.44° C | 45% | 994.1 hPa | - | - | - | - |
| 1777795703 | 15° C | 44% | 994.1 hPa | - | - | - | - |
| 1777794803 | 15° C | 44% | 994.3 hPa | - | - | - | - |
| 1777793903 | 15° C | 44% | 994.6 hPa | - | - | - | - |
* Rain since midnight (hover to see other rain measurements)
** Current wind speed in m/s (hover to see current wind gust speed)